Weather reports worldwide

Advertisment
Pontevedra, Spain (8044): temperature & dewpoint: 18.06.2019 16:00:00 - 24.06.2019 16:00:00 (CEST)Pontevedra, Spain (8044): wind speed: 18.06.2019 16:00:00 - 24.06.2019 16:00:00 (CEST)Pontevedra, Spain (8044): wind direction: 18.06.2019 16:00:00 - 24.06.2019 16:00:00 (CEST)Pontevedra, Spain (8044): reduced air pressure: 18.06.2019 16:00:00 - 24.06.2019 16:00:00 (CEST)Pontevedra, Spain (8044): visibility: 18.06.2019 16:00:00 - 24.06.2019 16:00:00 (CEST)Pontevedra, Spain (8044): precipitation: 18.06.2019 16:00:00 - 24.06.2019 16:00:00 (CEST)
Date & Time tt [°C] td [°C] ff [km/h] ff [kn] dd ppp [hPa] vv [km] rr [mm]
24.06.2019 16:00:00 - - - - - - - -
24.06.2019 15:00:00 20,2 15,4 13 7 SW 1013,7 15 0,0
24.06.2019 14:00:00 18,6 14,7 15 8 SW 1013,8 15 -
24.06.2019 13:00:00 21,5 13,9 9 5 S 1013,6 20 0,0
24.06.2019 12:00:00 19,2 15,1 4 2 S 1013,6 19 0,0
24.06.2019 11:00:00 18,5 14,0 4 2 ESE 1013,6 15 -
24.06.2019 10:00:00 16,8 13,5 5 3 NE 1013,3 20 0,0
24.06.2019 09:00:00 14,4 12,8 8 4 NE 1013,5 17 0,0
24.06.2019 08:00:00 13,9 12,6 4 2 E 1013,7 10 -
24.06.2019 07:00:00 13,9 12,5 5 3 E 1013,3 13 0,0
24.06.2019 06:00:00 14,2 12,9 5 3 E 1013,3 13 0,0
24.06.2019 05:00:00 14,4 12,8 8 4 ENE 1012,8 14 -
24.06.2019 04:00:00 14,6 13,1 9 5 ENE 1013,2 10 0,0
24.06.2019 03:00:00 15,2 13,6 8 4 ENE 1013,3 8 0,0
24.06.2019 02:00:00 15,3 13,5 9 5 ENE 1013,4 - -
24.06.2019 01:00:00 15,6 14,0 5 3 E 1013,8 3,8 0,0
24.06.2019 00:00:00 16,1 14,1 4 2 ENE 1013,8 6 0,0
23.06.2019 23:00:00 16,5 14,1 2 1 S 1013,4 7 -
23.06.2019 22:00:00 17,7 14,2 5 3 WSW 1012,9 12 0,0
23.06.2019 21:00:00 17,6 14,3 8 4 SW 1012,8 13 0,0
23.06.2019 20:00:00 18,3 14,6 5 3 W 1012,2 12 -
23.06.2019 19:00:00 19,3 15,0 11 6 SW 1011,9 13 0,0
23.06.2019 18:00:00 19,1 15,0 13 7 SW 1012,1 12 0,0
23.06.2019 17:00:00 20,6 14,9 15 8 SW 1011,9 12 -
23.06.2019 16:00:00 21,1 15,4 15 8 SW 1011,8 10 0,0
23.06.2019 15:00:00 19,6 14,6 16 9 SW 1012,0 11 0,0
23.06.2019 14:00:00 19,8 15,2 13 7 SW 1011,8 20 -
23.06.2019 13:00:00 19,9 16,1 13 7 SW 1011,5 14 0,0
23.06.2019 12:00:00 18,1 15,4 11 6 SW 1011,4 16 0,0
23.06.2019 11:00:00 19,1 15,6 5 3 S 1011,2 20 -
23.06.2019 10:00:00 16,9 15,2 5 3 S 1011,2 20 0,0
23.06.2019 09:00:00 16,4 14,9 4 2 SSW 1010,7 20 0,0
23.06.2019 08:00:00 15,5 14,7 2 1 NE 1010,3 10 -
23.06.2019 07:00:00 15,3 14,3 2 1 SSW 1010,2 2,9 0,2
23.06.2019 06:00:00 15,6 14,0 4 2 W 1010,2 19 0,0
23.06.2019 05:00:00 15,6 13,8 8 4 SSE 1010,3 19 -
23.06.2019 04:00:00 15,3 13,5 13 7 SSE 1010,6 20 0,0
23.06.2019 03:00:00 14,9 12,8 5 3 SSE 1011,0 15 0,2
23.06.2019 02:00:00 14,9 12,6 5 3 SSW 1011,1 11 -
23.06.2019 01:00:00 15,5 11,9 9 5 ESE 1011,4 16 1,0
23.06.2019 00:00:00 18,3 8,5 5 3 S 1011,4 20 0,0
22.06.2019 23:00:00 18,8 8,4 9 5 SSE 1011,4 20 -
22.06.2019 22:00:00 18,6 8,5 5 3 S 1011,1 20 0,0
22.06.2019 21:00:00 18,8 11,6 2 1 ESE 1011,4 20 0,0
22.06.2019 20:00:00 19,1 10,9 4 2 SSE 1011,4 15 -
22.06.2019 19:00:00 19,1 11,6 8 4 SW 1011,7 19 0,0
22.06.2019 18:00:00 18,7 11,7 5 3 SW 1011,8 20 0,0
22.06.2019 17:00:00 18,9 11,7 9 5 SSW 1012,0 8 -
22.06.2019 16:00:00 - - - - - - - -
22.06.2019 15:00:00 20,2 13,9 18 10 SW 1012,7 18 0,0
22.06.2019 14:00:00 19,8 13,0 13 7 WSW 1013,0 20 -
22.06.2019 13:00:00 20,5 13,2 9 5 S 1012,7 20 0,0
22.06.2019 12:00:00 17,8 14,3 4 2 WSW 1013,1 20 0,0
22.06.2019 11:00:00 17,2 13,9 4 2 S 1013,6 20 -
22.06.2019 10:00:00 15,8 13,3 4 2 NW 1014,3 20 0,0
22.06.2019 09:00:00 15,0 13,0 2 1 WSW 1014,4 19 0,0
22.06.2019 08:00:00 13,8 12,2 4 2 SE 1014,4 20 -
22.06.2019 07:00:00 13,7 11,6 8 4 ENE 1013,8 20 0,0
22.06.2019 06:00:00 13,7 11,6 8 4 NE 1014,0 20 0,0
22.06.2019 05:00:00 13,9 11,6 4 2 NE 1014,9 19 -
22.06.2019 04:00:00 14,1 11,6 5 3 NE 1015,4 20 0,0
22.06.2019 03:00:00 14,2 11,7 4 2 ENE 1016,1 20 0,0
22.06.2019 02:00:00 14,5 11,8 2 1 SE 1016,1 20 -
22.06.2019 01:00:00 15,3 11,9 8 4 ENE 1016,3 20 0,0
22.06.2019 00:00:00 16,0 12,0 8 4 ENE 1016,6 20 0,0
21.06.2019 23:00:00 16,7 11,2 2 1 SSE 1016,8 20 -
21.06.2019 22:00:00 18,4 11,5 5 3 S 1016,9 20 0,0
21.06.2019 21:00:00 20,6 12,6 5 3 S 1016,8 20 0,0
21.06.2019 20:00:00 21,2 12,3 13 7 SW 1016,6 15 -
21.06.2019 19:00:00 22,0 12,8 15 8 SW 1016,7 20 0,0
21.06.2019 18:00:00 22,2 13,0 15 8 SW 1016,9 20 0,0
21.06.2019 17:00:00 22,0 13,6 13 7 WSW 1017,1 20 -
21.06.2019 16:00:00 22,4 13,5 13 7 WSW 1017,4 20 0,0
21.06.2019 15:00:00 21,6 13,5 15 8 WSW 1017,7 20 0,0
21.06.2019 14:00:00 22,1 13,2 13 7 WSW 1017,9 20 -
21.06.2019 13:00:00 22,2 11,9 5 3 N 1017,9 20 0,0
21.06.2019 12:00:00 21,1 12,5 8 4 NNW 1018,0 20 0,0
21.06.2019 11:00:00 18,6 11,7 4 2 SW 1018,1 20 -
21.06.2019 10:00:00 16,7 12,4 4 2 WNW 1018,5 20 0,0
21.06.2019 09:00:00 13,2 11,3 2 1 W 1018,8 20 0,0
21.06.2019 08:00:00 11,5 9,9 0 0 N 1018,5 20 -
21.06.2019 07:00:00 11,8 9,9 4 2 E 1018,2 20 0,0
21.06.2019 06:00:00 12,3 10,2 8 4 ENE 1017,9 20 0,0
21.06.2019 05:00:00 12,5 10,2 8 4 NE 1018,1 20 -
21.06.2019 04:00:00 12,4 10,3 5 3 ENE 1018,1 20 0,0
21.06.2019 03:00:00 13,0 10,9 4 2 NE 1018,2 20 0,0
21.06.2019 02:00:00 13,9 11,6 2 1 NE 1017,9 20 -
21.06.2019 01:00:00 15,1 10,9 2 1 ENE 1017,8 20 0,0
21.06.2019 00:00:00 16,4 11,1 8 4 NE 1017,2 20 0,0
20.06.2019 23:00:00 16,8 11,9 5 3 N 1016,7 20 -
20.06.2019 22:00:00 18,9 12,6 8 4 NW 1015,9 20 0,0
20.06.2019 21:00:00 19,3 13,0 9 5 NNW 1015,6 20 0,0
20.06.2019 20:00:00 20,3 14,0 11 6 NW 1015,5 20 -
20.06.2019 19:00:00 20,8 14,2 11 6 NW 1015,1 20 0,0
20.06.2019 18:00:00 20,9 13,8 11 6 W 1015,2 20 0,0
20.06.2019 17:00:00 21,3 14,9 9 5 WSW 1015,3 15 -
20.06.2019 16:00:00 21,9 13,8 9 5 NW 1015,4 20 0,0
20.06.2019 15:00:00 21,8 14,2 13 7 WNW 1015,4 20 0,0
20.06.2019 14:00:00 21,4 14,5 11 6 NW 1015,5 20 -
20.06.2019 13:00:00 21,0 14,6 15 8 WNW 1015,8 20 0,0
20.06.2019 12:00:00 20,5 14,2 9 5 N 1015,7 20 0,0
20.06.2019 11:00:00 18,8 14,5 5 3 NNW 1015,9 15 -
20.06.2019 10:00:00 16,4 14,4 2 1 W 1016,2 20 0,0
20.06.2019 09:00:00 15,5 14,0 2 1 NNW 1016,0 19 0,0
20.06.2019 08:00:00 15,0 13,9 2 1 NE 1015,8 10 -
20.06.2019 07:00:00 14,8 13,7 2 1 NNE 1015,9 18 0,0
20.06.2019 06:00:00 14,8 13,8 2 1 SE 1016,1 17 0,0
20.06.2019 05:00:00 14,9 13,8 0 0 N 1016,0 19 -
20.06.2019 04:00:00 15,0 13,9 2 1 N 1016,4 20 0,0
20.06.2019 03:00:00 14,9 13,8 5 3 E 1016,9 20 0,0
20.06.2019 02:00:00 15,2 14,2 5 3 ENE 1017,0 17 -
20.06.2019 01:00:00 15,0 14,0 2 1 SSE 1017,3 11 0,0
20.06.2019 00:00:00 15,6 14,3 4 2 ENE 1016,9 19 0,0
19.06.2019 23:00:00 15,9 14,4 4 2 SW 1016,7 20 -
19.06.2019 22:00:00 16,6 14,8 8 4 SW 1016,5 20 0,0
19.06.2019 21:00:00 16,7 14,0 8 4 SSW 1016,5 20 0,0
19.06.2019 20:00:00 17,0 13,3 13 7 SW 1016,3 20 -
19.06.2019 19:00:00 17,6 14,7 13 7 SW 1015,9 20 0,0
19.06.2019 18:00:00 18,6 15,5 9 5 SW 1015,9 20 0,0
19.06.2019 17:00:00 19,1 14,6 15 8 SW 1015,7 15 -
19.06.2019 16:00:00 18,6 14,7 21 11 SW 1015,8 20 0,0
19.06.2019 15:00:00 17,7 15,0 18 10 SW 1015,6 20 0,0
19.06.2019 14:00:00 18,2 15,6 15 8 SW 1015,3 12 -
19.06.2019 13:00:00 17,5 15,1 13 7 SW 1015,1 20 0,0
19.06.2019 12:00:00 17,0 14,3 9 5 SSE 1014,8 16 0,0
19.06.2019 11:00:00 16,6 14,6 8 4 S 1014,2 10 -
19.06.2019 10:00:00 16,1 14,5 5 3 SE 1014,1 20 0,0
19.06.2019 09:00:00 - - - - - - - -
19.06.2019 08:00:00 15,5 14,2 4 2 S 1013,2 6 -
19.06.2019 07:00:00 15,3 14,2 2 1 S 1013,0 19 0,0
19.06.2019 06:00:00 15,5 14,7 4 2 S 1012,5 11 0,0
19.06.2019 05:00:00 15,7 14,7 5 3 S 1012,6 12 -
19.06.2019 04:00:00 15,9 14,6 5 3 S 1012,3 19 0,0
19.06.2019 03:00:00 16,0 14,5 8 4 S 1012,2 19 0,0
19.06.2019 02:00:00 16,1 14,5 5 3 S 1012,3 19 -
19.06.2019 01:00:00 16,2 14,6 8 4 S 1012,5 20 0,0
19.06.2019 00:00:00 16,3 14,7 11 6 S 1012,3 17 0,0
18.06.2019 23:00:00 16,5 14,7 13 7 S 1011,9 18 -
18.06.2019 22:00:00 17,5 14,2 16 9 S 1011,4 19 0,0
18.06.2019 21:00:00 17,9 14,0 18 10 S 1011,0 20 0,0
18.06.2019 20:00:00 18,8 14,3 18 10 SSW 1010,4 10 -
18.06.2019 19:00:00 18,7 14,4 11 6 S 1010,1 20 0,0
18.06.2019 18:00:00 18,5 14,4 13 7 S 1009,9 20 0,0
18.06.2019 17:00:00 18,2 15,4 15 8 S 1009,7 8 -
18.06.2019 16:00:00 16,5 15,5 18 10 S 1009,8 11 2,0

tt = temperature
td = dewpoint
ff = wind speed
dd = wind direction
ppp = reduced air pressure
vv = visibility
rr = precipitation

Next stations